Campo, CA

6:37 AM PDT on April 28, 2017 (GMT -0700)
Campo

Weather History for KCZZ - December, 2011

Change the Weather History Date:

Wednesday, December 28, 2011

  Actual Average Record
Temperature  
Mean Temperature 53 °F 48 °F  
Max Temperature 70 °F 62 °F 81 °F (1998)
Min Temperature 35 °F 33 °F 19 °F (1962)
Degree Days  
Heating Degree Days 12 17  
Month to date heating degree days 603 488  
Since 1 July heating degree days 1235 1058  
Cooling Degree Days 0 0  
Month to date cooling degree days 0 0  
Year to date cooling degree days 733 841  
Growing Degree Days 2 (Base 50)    
Moisture  
Dew Point 14 °F    
Average Humidity 25    
Maximum Humidity 38    
Minimum Humidity 11    
Precipitation  
Precipitation 0.00 in 0.08 in 2.21 in (1983)
Month to date precipitation 1.49 2.00  
Year to date precipitation 12.99 15.46  
Since 1 July precipitation 5.24  
Snow  
Snow 0.00 in - - ()
Month to date snowfall 0.0  
Year to date snowfall 0.0  
Snow Depth 0.00 in    
Sea Level Pressure  
Sea Level Pressure 30.14 in    
Wind  
Wind Speed 11 mph (ENE)    
Max Wind Speed 28 mph    
Max Gust Speed 33 mph    
T = Trace of Precipitation, MM = Missing Value Source: NWS Daily Summary

Daily Weather History Graph

Daily Weather History Graph

Search for Another Location

Airport or City:

Trip Planner

Search our weather history database for the weather conditions in past years. The results will help you decide how hot, cold, wet, or windy it might be!

Date:

Astronomy

Dec. 28, 2011 Rise Set
Actual Time 6:46 AM PST 4:48 PM PST
Civil Twilight 6:19 AM PST 5:15 PM PST
Nautical Twilight 5:48 AM PST 5:46 PM PST
Astronomical Twilight 5:18 AM PST 6:16 PM PST
Moon 9:28 AM PST 9:13 PM PST
Length of Visible Light 10h 55m
Length of Day
10h 01m
Waxing Crescent, 19% of the Moon is Illuminated
Dec 28
Waxing Crescent
Dec 31
First Quarter
Jan 8
Full
Jan 16
Last Quarter
Jan 22
New

Hourly Weather History & Observations

Time (PST) Temp. Windchill Dew Point Humidity Pressure Visibility Wind Dir Wind Speed Gust Speed Precip Events Conditions
12:52 AM 46.0 °F - 10.0 °F 23% 30.14 in - Calm Calm - N/A   Unknown
1:52 AM 44.1 °F - 12.0 °F 27% 30.15 in - Calm Calm - N/A   Unknown
2:52 AM 39.9 °F 33.4 °F 12.0 °F 32% 30.15 in - ENE 10.4 mph - N/A   Unknown
3:52 AM 43.0 °F 38.2 °F 10.9 °F 27% 30.16 in - ENE 8.1 mph - N/A   Unknown
4:52 AM 45.0 °F 40.1 °F 10.9 °F 25% 30.16 in - NE 9.2 mph - N/A   Unknown
5:52 AM 48.0 °F - 9.0 °F 21% 30.16 in - ENE 12.7 mph - N/A   Unknown
6:52 AM 39.0 °F - 15.1 °F 38% 30.21 in - Calm Calm - N/A   Unknown
7:52 AM 41.0 °F - 17.1 °F 38% 30.22 in - Calm Calm - N/A   Unknown
8:52 AM 57.0 °F - 24.1 °F 28% 30.19 in - Calm Calm - N/A   Unknown
9:34 AM 66.2 °F - 12.2 °F 12% 30.23 in - ENE 16.1 mph - N/A   Unknown
9:52 AM 66.9 °F - 10.9 °F 11% 30.18 in - ENE 20.7 mph - N/A   Unknown
10:52 AM 69.1 °F - 12.0 °F 11% 30.14 in - ENE 16.1 mph 26.5 mph N/A   Unknown
11:52 AM 69.1 °F - 12.0 °F 11% 30.10 in - ENE 21.9 mph 28.8 mph N/A   Unknown
12:52 PM 69.1 °F - 12.0 °F 11% 30.08 in - ENE 26.5 mph 33.4 mph N/A   Unknown
1:52 PM 69.1 °F - 12.0 °F 11% 30.07 in - East 21.9 mph 28.8 mph N/A   Unknown
2:52 PM 68.0 °F - 12.9 °F 12% 30.08 in - East 20.7 mph 26.5 mph N/A   Unknown
3:52 PM 64.9 °F - 14.0 °F 14% 30.09 in - East 16.1 mph - N/A   Unknown
4:52 PM 59.0 °F - 14.0 °F 17% 30.10 in - ENE 12.7 mph - N/A   Unknown
5:52 PM 51.1 °F - 19.0 °F 28% 30.12 in - North 6.9 mph - N/A   Unknown
6:52 PM 46.0 °F - 19.0 °F 34% 30.16 in - Calm Calm - N/A   Unknown
7:52 PM 41.0 °F 36.4 °F 18.0 °F 40% 30.18 in - NE 6.9 mph - N/A   Unknown
8:52 PM 39.0 °F 34.8 °F 18.0 °F 43% 30.15 in - NE 5.8 mph - N/A   Unknown
9:52 PM 37.9 °F 32.7 °F 16.0 °F 41% 30.14 in - NE 6.9 mph - N/A   Unknown
10:52 PM 36.0 °F 31.1 °F 16.0 °F 44% 30.12 in - NE 5.8 mph - N/A   Unknown
11:52 PM 36.0 °F 31.1 °F 16.0 °F 44% 30.10 in - NE 5.8 mph - N/A   Unknown